Regional Weather Roundup
Issued by NWS Newport/Morehead, NC

Home | Current Version | Previous Version | Text Only | Print | Product List | Glossary On
Versions: 1 2 3 4 5 6 7 8 9 10 11 12 13 14 15 16 17 18 19 20 21 22 23 24 25 26 27 28 29 30 31 32 33 34 35 36 37 38 39 40 41 42 43 44 45 46 47 48 49 50
000
ASUS42 KMHX 250125
RWRMHX
WEATHER ROUNDUP FOR EASTERN NORTH CAROLINA
NATIONAL WEATHER SERVICE NEWPORT/MOREHEAD CITY NC
900 PM EDT SAT SEP 24 2016

NOTE: "FAIR" INDICATES FEW OR NO CLOUDS BELOW 12,000 FEET
WITH NO SIGNIFICANT WEATHER AND/OR OBSTRUCTIONS TO VISIBILITY

NCZ015>017-031-032-045>047-102-103-250200-
NORTH COAST

CITY           SKY/WX    TMP DP  RH WIND       PRES   REMARKS
EDENTON        MOCLDY    75  75 100 E5        30.07R
ELIZABETH CITY CLOUDY    74  69  85 NE12      30.07R
KITTY HAWK     NOT AVBL
MANTEO         PTCLDY    73  70  88 NE17G23   30.06R

$$

NCZ045>047-081-094-103-104-250200-
CENTRAL COAST

CITY           SKY/WX    TMP DP  RH WIND       PRES   REMARKS
FRISCO         PTCLDY    76  70  82 NE8       30.04R

$$

NCZ095-097-098-100-101-250200-
SOUTHERN COAST

CITY           SKY/WX    TMP DP  RH WIND       PRES   REMARKS
BEAUFORT       CLEAR     75  69  81 CALM      30.03R
CEDAR ISLAND   NOT AVBL
JACKSONVILLE     N/A     75  71  87 S3        30.03R
PINEY ISLAND   CLEAR    N/A N/A N/A SE5       30.03R
WILMINGTON     CLEAR     73  72  96 CALM      30.03R


$$

NCZ011>013-027>030-043-044-078>080-089-090>093-098-250200-
COASTAL PLAIN

CITY           SKY/WX    TMP DP  RH WIND       PRES   REMARKS
AHOSKIE        MOCLDY    74  71  89 NE6       30.06R
CLINTON        CLEAR     73  72  94 CALM      30.04R
ELIZABETHTOWN  CLEAR     75  70  83 CALM      30.04R
GOLDSBORO      CLEAR     75  74  95 CALM      30.02R
GREENVILLE     CLEAR     72  72 100 CALM      30.05R
HAVELOCK       CLEAR     76  71  85 CALM      30.04R
KENANSVILLE    CLEAR     70  70 100 CALM      30.04R
KINSTON        CLEAR     73  72  94 CALM      30.04R
NEW BERN       CLEAR     72  71  97 S3        30.04R
RICHLANDS      CLEAR     71  70  96 CALM      30.04R
ROCKY MOUNT    CLEAR     73  72  96 CALM      30.03R
WASHINGTON     CLEAR     73  71  95 CALM      30.03R
WHITEVILLE     NOT AVBL

$$

AMZ130-135-150-152-154-156-158-170-250-252-270-ANZ085-086-088-633-658-670-250200-
MARINE OBSERVATIONS

STATION/POSITION TIME  TEMP    WIND        PRES    WAVE   SWELL
                       AIR SEA DIR/SP/G            HT/PER HT/PER
                 (UTC) (F)     (DEG/KT/KT) (MB)    (FT/S) (FT/S)
CHESAPEAKE LIGHT NOT AVBL
64 E VA BEACH    0050   73 74   20/ 17/ 21 1017.4    6/11   3/11
DUCK             0054   74 79   50/ 16/ 18 1017.7
2 E DUCK         0041      77                N/A     4/11   2/11
OREGON INLET     0054   74 80   30/ 13/ 15 1017.4
13E OREGON INLT  0100      77                N/A     5/12   5/12
HATTERAS CG      0054   78 82   40/ 10/ 12 1016.9
DIAMOND BUOY     0050   79 81   20/ 12/ 14 1016.7    6/11   7/11
CAPE LOOKOUT     0100   80      90/  7/  8 1016.7
BEAUFORT LAB     0054   79 80  110/  2/  3 1016.4
30 SE NEW RVR IN 0108   81 82   80/  8/ 10 1017.0
30 SE NEW RVR IN 0055      82                N/A     3/11   2/11
27 SE WRIGHTSVLE 0108   80 82   60/  8/ 10 1017.3
5 SE WRIGHTSVLE  0008   80 81  100/  4/  6 1017.5
225 S CAPE HAT   0050   82 84   10/  4/  6 1015.9    4/11   5/11
41 SE CHARLESTON 0050   81 82   70/  8/ 10 1016.4    3/10   3/10

$$



USA.gov is the U.S. government's official web portal to all federal, state and local government web resources and services.